Weather in Vnov-Yurmytskoye

Russia / Sverdlovsk Oblast     57°12′06″N   63°20′39″E
temp.,
°C
wind,
m/s
gust,
m/s
humid.,
%
clouds,
%
prec.,
mm/h
press.,
hPa
HPBL,
m
8 august, mon
mon823:00+18ne118820 0.0 101811
02:00+17n1189100 0.0 101911
05:00+16nne119077 0.0 101911
08:00+21nne127430 0.0 1019196
11:00+25ne235238 0.0 10191124
14:00+26ene334597 0.0 10191586
17:00+26ene234799 0.0 10181412
20:00+22sse116715 0.0 101811
9 august, tue
tue923:00+18sse11755 0.0 101911
02:00+17wnw22805 0.0 101917
05:00+16wnw22821 0.0 101913
08:00+21nw12680 0.0 1019173
11:00+26nnw12500 0.0 1018928
14:00+28nne23400 0.0 10182150
17:00+28e234114 0.0 10171751
20:00+20nnw23793 0.5 101752
10 august, wed
wed1023:00+18n24905 1.8 101761
02:00+17nnw23935 0.0 101760
05:00+16n269522 0.1 1018105
08:00+19n258650 0.1 1018213
11:00+25nne345959 0.1 1018795
14:00+27ne344860 0.0 10181603
17:00+27ne334746 0.0 10171753
20:00+23ene236798 0.0 101857
11 august, thu
thu1123:00+21e256999 0.0 1018120
02:00+18se248592 0.1 101893
05:00+18sse258314 0.2 1018143
08:00+21s347416 0.0 1018275
11:00+26ssw34545 0.0 10171084
14:00+29sw354357 0.0 10162322
17:00+25sw2256100 0.0 101580
20:00+22sw3668100 0.1 1014168
12 august, fri
fri1223:00+19sw2285100 0.9 101440
02:00+17wsw2293100 1.3 101231
05:00+16nnw1197100 1.6 101115
08:00+17w2696100 1.4 1011273
11:00+17ssw2598100 3.1 1011267
14:00+18wnw478718 2.0 1010778
17:00+21wnw585723 2.6 10101769
20:00+17wnw4117510 0.3 1010510